Location: Unspecified
(0.0000°N, 0.0000°E)
Time: 22:38:15
(UTC+00:00)

Envisat - Pass Details

Date: 24 April 2018
Orbit: 764 x 766 km, 98.2° (Epoch: 24 April)

Event Time Altitude Azimuth Distance (km) Brightness Sun altitude
Exits shadow 18:48:42 13° 77° (ENE) 2,061 4.7 -12.3°
Drops below altitude 10° 18:51:05 10° 49° (NE) 2,293 5.1 -12.9°
Sets 18:54:35 0° 23° (NNE) 3,215 6.1 -13.7°
